Date,TemperatureHighF,TemperatureAvgF,TemperatureLowF,DewpointHighF,DewpointAvgF,DewpointLowF,HumidityHigh,HumidityAvg,HumidityLow,PressureMaxIn,PressureMinIn,WindSpeedMaxMPH,WindSpeedAvgMPH,GustSpeedMaxMPH,PrecipitationSumIn
2013-2-1,53.4,45.8,36.7,28.8,22.6,14.1,52,40,29,30.15,29.88,5,1,11,0.00
2013-2-2,57.9,42.8,29.5,32.2,21.2,11.9,54,43,32,30.15,29.88,4,-68,7,0.00
2013-2-3,62.6,50.2,41.2,35.9,32.0,26.6,70,51,35,29.88,29.71,5,1,10,0.00
2013-2-4,52.0,44.9,38.1,31.5,28.0,24.3,64,52,41,29.94,29.82,3,0,6,0.00
2013-2-5,66.0,50.6,36.7,47.5,38.8,30.1,80,65,46,29.85,29.74,2,0,4,0.00
2013-2-6,71.2,55.2,44.4,50.5,42.4,35.7,92,65,34,29.97,29.79,3,-126,6,0.00
2013-2-7,52.2,49.1,46.4,49.0,44.6,36.1,97,85,63,29.97,29.65,4,1,8,2.20
2013-2-8,62.4,52.4,46.0,51.6,47.1,44.3,95,83,67,29.91,29.68,6,-15,6,0.00
2013-2-9,63.0,49.6,36.3,44.2,37.6,33.1,90,66,40,30.12,29.88,4,-109,5,0.00
2013-2-10,66.7,53.2,41.0,55.1,41.9,32.8,91,67,50,30.21,29.88,5,-214,11,0.16
2013-2-11,66.2,60.2,56.5,65.3,59.4,55.1,98,97,91,30.00,29.82,4,-94,6,0.99
2013-2-12,64.8,56.6,50.9,55.9,52.1,48.6,98,86,57,29.91,29.65,3,-122,5,0.71
2013-2-13,59.0,52.6,48.7,57.5,50.2,42.7,98,92,78,29.68,29.47,3,0,6,0.04
2013-2-14,53.6,46.5,39.7,43.4,40.1,36.7,90,79,62,29.88,29.65,2,0,5,0.00
2013-2-15,64.0,50.4,35.4,47.2,39.6,33.3,95,69,41,29.91,29.71,3,-29,6,0.00
2013-2-16,52.3,44.0,36.1,41.0,32.4,15.1,89,66,38,29.88,29.62,5,-109,11,0.12
2013-2-17,49.8,39.0,31.1,23.5,17.3,12.8,51,42,32,30.09,29.88,4,1,9,0.00
2013-2-18,59.4,43.6,30.0,31.7,24.3,17.1,66,48,35,30.21,30.00,4,1,9,0.00
2013-2-19,56.3,46.0,40.3,50.2,38.3,25.1,92,75,48,30.03,29.77,2,0,5,0.21
2013-2-20,60.1,47.6,34.2,34.1,29.7,25.3,74,52,34,30.00,29.82,3,-52,5,0.00
2013-2-21,65.3,50.9,36.9,36.7,31.5,24.5,66,48,33,30.00,29.82,4,-35,6,0.00
2013-2-22,54.1,46.7,42.8,42.9,39.7,33.7,94,78,49,30.00,29.88,3,1,6,0.71
2013-2-23,47.7,45.1,41.7,47.1,44.2,40.5,98,97,94,29.91,29.65,3,0,8,0.62
2013-2-24,71.6,55.0,46.6,52.8,45.8,39.4,98,75,37,29.79,29.65,3,-142,6,0.00
2013-2-25,51.1,47.6,43.2,42.5,37.6,34.1,84,69,53,29.85,29.71,5,-4,8,0.00
2013-2-26,54.5,47.0,41.4,53.1,45.5,37.8,98,94,82,29.74,29.35,3,-9,6,0.83
2013-2-27,65.3,50.4,41.7,46.4,41.2,38.1,97,73,44,29.68,29.56,3,-61,6,0.00
2013-2-28,58.6,49.4,42.4,40.6,33.9,25.0,74,56,40,29.74,29.59,4,2,9,0.00